TimeCST,TemperatureF,Dew PointF,Humidity,Sea Level PressureIn,VisibilityMPH,Wind Direction,Wind SpeedMPH,Gust SpeedMPH,PrecipitationIn,Events,Conditions,WindDirDegrees,DateUTC
12:54 AM,39.0,34.0,82,30.09,10.0,NW,9.2,-,N/A,,Clear,320,2011-11-20 06:54:00
1:33 AM,39.2,33.8,81,30.10,10.0,NNW,11.5,-,N/A,,Mostly Cloudy,340,2011-11-20 07:33:00
1:54 AM,37.9,33.1,83,30.10,10.0,NNW,12.7,-,N/A,,Mostly Cloudy,340,2011-11-20 07:54:00
2:03 AM,37.4,33.8,87,30.11,9.0,NNW,13.8,-,N/A,,Mostly Cloudy,340,2011-11-20 08:03:00
2:21 AM,37.4,32.0,81,30.11,9.0,North,12.7,-,N/A,,Scattered Clouds,350,2011-11-20 08:21:00
2:49 AM,35.6,32.0,87,30.11,9.0,North,11.5,-,N/A,,Mostly Cloudy,350,2011-11-20 08:49:00
2:54 AM,36.0,32.0,86,30.11,10.0,North,15.0,-,N/A,,Scattered Clouds,360,2011-11-20 08:54:00
3:54 AM,34.0,28.9,82,30.15,10.0,North,10.4,-,N/A,,Clear,350,2011-11-20 09:54:00
4:54 AM,33.1,28.0,82,30.16,10.0,North,9.2,-,N/A,,Partly Cloudy,10,2011-11-20 10:54:00
5:19 AM,33.8,28.4,81,30.17,10.0,North,11.5,-,N/A,,Mostly Cloudy,10,2011-11-20 11:19:00
5:54 AM,33.8,28.4,81,30.17,10.0,North,8.1,-,N/A,,Mostly Cloudy,10,2011-11-20 11:54:00
6:54 AM,33.1,28.9,85,30.21,10.0,NNE,10.4,-,N/A,,Overcast,30,2011-11-20 12:54:00
7:54 AM,33.8,28.4,81,30.21,10.0,NNE,11.5,-,N/A,,Overcast,20,2011-11-20 13:54:00
8:28 AM,33.8,28.4,81,30.21,10.0,NE,9.2,-,N/A,,Scattered Clouds,40,2011-11-20 14:28:00
8:38 AM,33.8,28.4,81,30.24,10.0,NNE,9.2,-,N/A,,Mostly Cloudy,30,2011-11-20 14:38:00
8:54 AM,34.0,28.9,82,30.24,10.0,NE,12.7,-,N/A,,Mostly Cloudy,50,2011-11-20 14:54:00
9:10 AM,35.6,28.4,75,30.22,10.0,NE,13.8,-,N/A,,Partly Cloudy,40,2011-11-20 15:10:00
9:54 AM,36.0,28.9,76,30.25,10.0,NNE,9.2,-,N/A,,Scattered Clouds,30,2011-11-20 15:54:00
10:54 AM,37.0,28.9,73,30.24,10.0,ENE,9.2,-,N/A,,Overcast,60,2011-11-20 16:54:00
11:54 AM,37.0,28.9,73,30.22,10.0,NE,12.7,-,N/A,,Overcast,40,2011-11-20 17:54:00
12:04 PM,37.4,30.2,75,30.19,10.0,ENE,11.5,-,N/A,,Overcast,60,2011-11-20 18:04:00
12:54 PM,37.9,30.0,73,30.22,10.0,NNE,8.1,-,N/A,,Overcast,30,2011-11-20 18:54:00
1:54 PM,39.0,30.0,70,30.20,10.0,NE,9.2,-,N/A,,Overcast,40,2011-11-20 19:54:00
2:54 PM,39.0,30.0,70,30.19,10.0,ENE,11.5,-,N/A,,Overcast,70,2011-11-20 20:54:00
3:54 PM,39.0,30.9,73,30.20,10.0,ENE,12.7,-,N/A,,Overcast,60,2011-11-20 21:54:00
4:54 PM,39.0,32.0,76,30.25,10.0,NNE,4.6,-,N/A,,Overcast,30,2011-11-20 22:54:00
5:54 PM,39.0,33.1,79,30.24,10.0,ENE,4.6,-,N/A,,Overcast,70,2011-11-20 23:54:00
6:54 PM,39.0,34.0,82,30.25,10.0,ENE,4.6,-,N/A,,Overcast,60,2011-11-21 00:54:00
7:54 PM,39.0,35.1,86,30.25,7.0,ENE,8.1,-,N/A,,Overcast,60,2011-11-21 01:54:00
8:54 PM,37.9,36.0,93,30.25,4.0,NNE,5.8,-,N/A,,Overcast,30,2011-11-21 02:54:00
9:09 PM,37.4,35.6,93,30.22,3.0,NNE,6.9,-,N/A,,Overcast,30,2011-11-21 03:09:00
9:21 PM,37.4,35.6,93,30.22,2.5,NE,5.8,-,N/A,,Overcast,40,2011-11-21 03:21:00
9:35 PM,37.4,37.4,100,30.22,2.5,ENE,6.9,-,N/A,,Overcast,60,2011-11-21 03:35:00
9:54 PM,37.9,37.0,97,30.23,2.0,ENE,3.5,-,N/A,,Overcast,60,2011-11-21 03:54:00
10:08 PM,37.4,37.4,100,30.20,1.8,NNE,5.8,-,N/A,,Overcast,20,2011-11-21 04:08:00
10:32 PM,37.4,37.4,100,30.20,2.0,North,8.1,-,N/A,,Overcast,10,2011-11-21 04:32:00
10:54 PM,37.9,37.0,97,30.23,2.5,North,6.9,-,N/A,,Overcast,10,2011-11-21 04:54:00
11:36 PM,37.4,37.4,100,30.22,1.8,North,5.8,-,N/A,,Overcast,10,2011-11-21 05:36:00
11:54 PM,37.9,37.0,97,30.22,1.8,NE,6.9,-,N/A,,Overcast,40,2011-11-21 05:54:00